This is the latest recevied weather packets stored in our database for station/object KA1JKB. If no packets are shown the sender has not sent any weather packets the latest 10 day(s).
| Time | Temp. | Humidity | Pressure | Rain* | Wind** | Luminosity | Snow |
|---|---|---|---|---|---|---|---|
| 1787593505 | 22.22° C | 66% | 1014.1 hPa | 0 mm | - | 692 W/m² | - |
| 1787593201 | 22.22° C | 67% | 1014 hPa | 0 mm | - | 693 W/m² | - |
| 1787592895 | 21.67° C | 69% | 1014 hPa | 0 mm | - | 698 W/m² | - |
| 1787592590 | 21.67° C | 69% | 1014.1 hPa | 0 mm | - | 708 W/m² | - |
| 1787592289 | 21.11° C | 69% | 1014.1 hPa | 0 mm | - | 711 W/m² | - |
| 1787591986 | 21.67° C | 68% | 1014.2 hPa | 0 mm | - | 698 W/m² | - |
| 1787591686 | 21.11° C | 69% | 1014.2 hPa | 0 mm | - | 687 W/m² | - |
| 1787591382 | 21.67° C | 70% | 1014.4 hPa | 0 mm | - | 694 W/m² | - |
| 1787591077 | 21.11° C | 70% | 1014.3 hPa | 0 mm | - | 689 W/m² | - |
| 1787590773 | 21.11° C | 71% | 1014.1 hPa | 0 mm | - | 687 W/m² | - |
| 1787590468 | 21.11° C | 70% | 1014.2 hPa | 0 mm | - | 696 W/m² | - |
| 1787590164 | 21.11° C | 69% | 1014.3 hPa | 0 mm | - | 707 W/m² | - |
| 1787589859 | 21.11° C | 69% | 1014.2 hPa | 0 mm | - | 709 W/m² | - |
| 1787589555 | 20.56° C | 72% | 1014.4 hPa | 0 mm | - | 714 W/m² | - |
| 1787589254 | 20.56° C | 72% | 1014.4 hPa | 0 mm | - | 757 W/m² | - |
| 1787588950 | 20.56° C | 71% | 1014.3 hPa | 0 mm | - | 744 W/m² | - |
| 1787588646 | 20.56° C | 71% | 1014.2 hPa | 0 mm | - | 735 W/m² | - |
| 1787588341 | 20.56° C | 71% | 1014.2 hPa | 0 mm | - | 732 W/m² | - |
| 1787588037 | 20° C | 72% | 1014.2 hPa | 0 mm | - | 739 W/m² | - |
| 1787587732 | 20.56° C | 71% | 1014.3 hPa | 0 mm | - | 769 W/m² | - |
| 1787587427 | 20.56° C | 71% | 1014.4 hPa | 0 mm | - | 769 W/m² | - |
| 1787587126 | 20.56° C | 73% | 1014.2 hPa | 0 mm | - | 805 W/m² | - |
| 1787586821 | 20.56° C | 72% | 1014.1 hPa | 0 mm | - | 807 W/m² | - |
| 1787586516 | 20° C | 73% | 1014.3 hPa | 0 mm | - | 775 W/m² | - |
| 1787586211 | 19.44° C | 73% | 1013.9 hPa | 0 mm | - | 847 W/m² | - |
* Rain latest hour (hover to see other rain measurements)
** Current wind speed in m/s (hover to see current wind gust speed)